,,,PA_Meas_PMT16A,,PR_Meas_QMR101_102,,RH_Meas_QMH101,,SR_Meas_QMS101,,TA_Meas_QMH101,,GenWind,,GenWind,
date,time,status,PA,status,PR,status,RH,status,SR,status,TA,status,DirAvg,status,SpdAvg,
2012-10-05, 00:00:04,VALID,1010.11,VALID,0,VALID,104,VALID,0,VALID,24.3547,VALID,14,VALID,0,
2012-10-05, 00:01:04,VALID,1010.08,VALID,0,VALID,104,VALID,0,VALID,24.3761,VALID,14,VALID,0,
2012-10-05, 00:02:04,VALID,1010.05,VALID,0,VALID,104,VALID,0,VALID,24.3566,VALID,15,VALID,0,
2012-10-05, 00:03:04,VALID,1010.02,VALID,0,VALID,104,VALID,0,VALID,24.3371,VALID,14,VALID,0,
2012-10-05, 00:04:04,VALID,1009.99,VALID,0,VALID,104,VALID,0,VALID,24.3566,VALID,14,VALID,0,
2012-10-05, 00:05:04,VALID,1009.96,VALID,0,VALID,104,VALID,0,VALID,24.3352,VALID,15,VALID,0,
2012-10-05, 00:06:04,VALID,1009.95,VALID,0,VALID,104,VALID,0,VALID,24.3352,VALID,15,VALID,0,
2012-10-05, 00:07:04,VALID,1009.94,VALID,0,VALID,104,VALID,0,VALID,24.3566,VALID,14,VALID,0,
2012-10-05, 00:08:04,VALID,1009.92,VALID,0,VALID,104,VALID,0,VALID,24.3352,VALID,15,VALID,0,
2012-10-05, 00:09:04,VALID,1009.9,VALID,0,VALID,104,VALID,0,VALID,24.3742,VALID,16,VALID,0,
2012-10-05, 00:10:04,VALID,1009.91,VALID,0,VALID,104,VALID,0,VALID,24.3761,VALID,14,VALID,0,
2012-10-05, 00:11:04,VALID,1009.87,VALID,0,VALID,104,VALID,0,VALID,24.3956,VALID,15,VALID,0,
2012-10-05, 00:12:04,VALID,1009.87,VALID,0,VALID,104,VALID,0,VALID,24.3742,VALID,14,VALID,0,
2012-10-05, 00:13:04,VALID,1009.83,VALID,0,VALID,104,VALID,0,VALID,24.3742,VALID,15,VALID,0,
2012-10-05, 00:14:04,VALID,1009.8,VALID,0,VALID,104,VALID,0,VALID,24.3761,VALID,15,VALID,0,
2012-10-05, 00:15:04,VALID,1009.77,VALID,0,VALID,104,VALID,0,VALID,24.3956,VALID,14,VALID,0,
2012-10-05, 00:16:04,VALID,1009.74,VALID,0,VALID,104,VALID,0,VALID,24.3956,VALID,14,VALID,0,
2012-10-05, 00:17:04,VALID,1009.68,VALID,0,VALID,104,VALID,0,VALID,24.3352,VALID,15,VALID,0,
2012-10-05, 00:18:04,VALID,1009.7,VALID,0,VALID,104,VALID,0,VALID,24.2963,VALID,15,VALID,0,
2012-10-05, 00:19:04,VALID,1009.7,VALID,0,VALID,104,VALID,0,VALID,24.2786,VALID,14,VALID,0,
2012-10-05, 00:20:04,VALID,1009.68,VALID,0,VALID,104,VALID,0,VALID,24.2378,VALID,15,VALID,0,
2012-10-05, 00:21:04,VALID,1009.69,VALID,0,VALID,104,VALID,0,VALID,24.2396,VALID,14,VALID,0,
2012-10-05, 00:22:04,VALID,1009.69,VALID,0,VALID,104,VALID,0,VALID,24.2396,VALID,14,VALID,0,
2012-10-05, 00:23:04,VALID,1009.67,VALID,0,VALID,104,VALID,0,VALID,24.2396,VALID,14,VALID,0,
2012-10-05, 00:24:04,VALID,1009.65,VALID,0,VALID,104,VALID,0,VALID,24.1988,VALID,15,VALID,0,
2012-10-05, 00:25:04,VALID,1009.7,VALID,0,VALID,104,VALID,0,VALID,24.2007,VALID,15,VALID,0,
2012-10-05, 00:26:04,VALID,1009.69,VALID,0,VALID,104,VALID,0,VALID,24.1812,VALID,15,VALID,0,
2012-10-05, 00:27:04,VALID,1009.7,VALID,0,VALID,104,VALID,0,VALID,24.1617,VALID,15,VALID,0,
2012-10-05, 00:28:04,VALID,1009.7,VALID,0,VALID,104,VALID,0,VALID,24.1617,VALID,14,VALID,0,
2012-10-05, 00:29:04,VALID,1009.68,VALID,0,VALID,104,VALID,0,VALID,24.1422,VALID,14,VALID,0,
2012-10-05, 00:30:04,VALID,1009.63,VALID,0,VALID,104,VALID,0,VALID,24.1227,VALID,14,VALID,0,
2012-10-05, 00:31:04,VALID,1009.61,VALID,0,VALID,104,VALID,0,VALID,24.1032,VALID,15,VALID,0,
2012-10-05, 00:32:04,VALID,1009.62,VALID,0,VALID,104,VALID,0,VALID,24.0819,VALID,14,VALID,0,
2012-10-05, 00:33:04,VALID,1009.62,VALID,0,VALID,104,VALID,0,VALID,24.0837,VALID,15,VALID,0,
2012-10-05, 00:34:04,VALID,1009.67,VALID,0,VALID,104,VALID,0,VALID,24.0624,VALID,15,VALID,0,
2012-10-05, 00:35:04,VALID,1009.66,VALID,0,VALID,104,VALID,0,VALID,24.0837,VALID,14,VALID,0,
2012-10-05, 00:36:04,VALID,1009.71,VALID,0,VALID,104,VALID,0,VALID,24.1032,VALID,15,VALID,0,
2012-10-05, 00:37:04,VALID,1009.71,VALID,0,VALID,104,VALID,0,VALID,24.1227,VALID,14,VALID,0,
2012-10-05, 00:38:04,VALID,1009.73,VALID,0,VALID,104,VALID,0,VALID,24.0819,VALID,14,VALID,0,
2012-10-05, 00:39:04,VALID,1009.7,VALID,0,VALID,104,VALID,0,VALID,24.1032,VALID,15,VALID,0,
2012-10-05, 00:40:04,VALID,1009.66,VALID,0,VALID,104,VALID,0,VALID,24.0837,VALID,14,VALID,0,
2012-10-05, 00:41:04,VALID,1009.6,VALID,0,VALID,104,VALID,0,VALID,24.0643,VALID,15,VALID,0,
2012-10-05, 00:42:04,VALID,1009.6,VALID,0,VALID,104,VALID,0,VALID,24.0643,VALID,15,VALID,0,
2012-10-05, 00:43:04,VALID,1009.6,VALID,0,VALID,104,VALID,0,VALID,24.0624,VALID,15,VALID,0,
2012-10-05, 00:44:04,VALID,1009.62,VALID,0,VALID,104,VALID,0,VALID,24.0429,VALID,14,VALID,0,
2012-10-05, 00:45:04,VALID,1009.65,VALID,0,VALID,104,VALID,0,VALID,24.0448,VALID,16,VALID,0,
2012-10-05, 00:46:04,VALID,1009.69,VALID,0,VALID,104,VALID,0,VALID,24.0448,VALID,14,VALID,0,
2012-10-05, 00:47:04,VALID,1009.71,VALID,0,VALID,104,VALID,0,VALID,24.0235,VALID,15,VALID,0,
2012-10-05, 00:48:04,VALID,1009.69,VALID,0,VALID,104,VALID,0,VALID,24.0448,VALID,15,VALID,0,
2012-10-05, 00:49:04,VALID,1009.68,VALID,0,VALID,104,VALID,0,VALID,24.004,VALID,15,VALID,0,
2012-10-05, 00:50:04,VALID,1009.64,VALID,0,VALID,104,VALID,0,VALID,24.0235,VALID,15,VALID,0,
2012-10-05, 00:51:04,VALID,1009.66,VALID,0,VALID,104,VALID,0,VALID,24.0429,VALID,15,VALID,0,
2012-10-05, 00:52:04,VALID,1009.63,VALID,0,VALID,104,VALID,0,VALID,24.004,VALID,15,VALID,0,
2012-10-05, 00:53:04,VALID,1009.63,VALID,0,VALID,104,VALID,0,VALID,24.0058,VALID,15,VALID,0,
2012-10-05, 00:54:04,VALID,1009.63,VALID,0,VALID,104,VALID,0,VALID,23.9455,VALID,15,VALID,0,
2012-10-05, 00:55:04,VALID,1009.63,VALID,0,VALID,104,VALID,0,VALID,23.9668,VALID,15,VALID,0,
2012-10-05, 00:56:04,VALID,1009.6,VALID,0,VALID,104,VALID,0,VALID,23.9863,VALID,15,VALID,0,
2012-10-05, 00:57:04,VALID,1009.6,VALID,0,VALID,104,VALID,0,VALID,23.965,VALID,15,VALID,0,
2012-10-05, 00:58:04,VALID,1009.55,VALID,0,VALID,104,VALID,0,VALID,23.9863,VALID,15,VALID,0,
2012-10-05, 00:59:04,VALID,1009.52,VALID,0,VALID,104,VALID,0.112112,VALID,23.965,VALID,15,VALID,0,
2012-10-05, 01:00:04,VALID,1009.49,VALID,0,VALID,104,VALID,0,VALID,23.9473,VALID,15,VALID,0,
2012-10-05, 01:01:04,VALID,1009.45,VALID,0,VALID,104,VALID,0,VALID,23.9278,VALID,15,VALID,0,
2012-10-05, 01:02:04,VALID,1009.45,VALID,0,VALID,104,VALID,0,VALID,23.9278,VALID,15,VALID,0,
2012-10-05, 01:03:04,VALID,1009.43,VALID,0,VALID,104,VALID,0,VALID,23.9084,VALID,15,VALID,0,
2012-10-05, 01:04:04,VALID,1009.47,VALID,0,VALID,104,VALID,0,VALID,23.8889,VALID,15,VALID,0,
2012-10-05, 01:05:04,VALID,1009.48,VALID,0,VALID,104,VALID,0,VALID,23.8889,VALID,15,VALID,0,
2012-10-05, 01:06:04,VALID,1009.52,VALID,0,VALID,104,VALID,0,VALID,23.8889,VALID,15,VALID,0,
2012-10-05, 01:07:04,VALID,1009.55,VALID,0,VALID,104,VALID,0,VALID,23.8889,VALID,15,VALID,0,
2012-10-05, 01:08:04,VALID,1009.58,VALID,0,VALID,104,VALID,0,VALID,23.8871,VALID,15,VALID,0,
2012-10-05, 01:09:04,VALID,1009.55,VALID,0,VALID,104,VALID,0,VALID,23.9065,VALID,15,VALID,0,
2012-10-05, 01:10:04,VALID,1009.5,VALID,0,VALID,104,VALID,0,VALID,23.9473,VALID,14,VALID,0,
2012-10-05, 01:11:04,VALID,1009.43,VALID,0,VALID,104,VALID,0,VALID,23.9065,VALID,14,VALID,0,
2012-10-05, 01:12:04,VALID,1009.4,VALID,0,VALID,104,VALID,0,VALID,23.9278,VALID,15,VALID,0,
2012-10-05, 01:13:04,VALID,1009.35,VALID,0,VALID,104,VALID,0,VALID,23.9065,VALID,15,VALID,0,
2012-10-05, 01:14:04,VALID,1009.34,VALID,0,VALID,104,VALID,0,VALID,23.9084,VALID,14,VALID,0,
2012-10-05, 01:15:04,VALID,1009.31,VALID,0,VALID,104,VALID,0,VALID,23.9084,VALID,14,VALID,0,
2012-10-05, 01:16:04,VALID,1009.31,VALID,0,VALID,104,VALID,0,VALID,23.8889,VALID,15,VALID,0,
2012-10-05, 01:17:04,VALID,1009.33,VALID,0,VALID,104,VALID,0,VALID,23.8889,VALID,14,VALID,0,
2012-10-05, 01:18:04,VALID,1009.34,VALID,0,VALID,104,VALID,0,VALID,23.8889,VALID,15,VALID,0,
2012-10-05, 01:19:04,VALID,1009.29,VALID,0,VALID,104,VALID,0,VALID,23.9084,VALID,15,VALID,0,
2012-10-05, 01:20:04,VALID,1009.3,VALID,0,VALID,104,VALID,0,VALID,23.8889,VALID,15,VALID,0,
2012-10-05, 01:21:04,VALID,1009.3,VALID,0,VALID,104,VALID,0,VALID,23.8481,VALID,15,VALID,0,
2012-10-05, 01:22:04,VALID,1009.29,VALID,0,VALID,104,VALID,0,VALID,23.8694,VALID,15,VALID,0,
2012-10-05, 01:23:04,VALID,1009.25,VALID,0,VALID,104,VALID,0,VALID,23.8889,VALID,15,VALID,0,
2012-10-05, 01:24:04,VALID,1009.19,VALID,0,VALID,104,VALID,0,VALID,23.8889,VALID,15,VALID,0,
2012-10-05, 01:25:04,VALID,1009.14,VALID,0,VALID,104,VALID,0,VALID,23.8676,VALID,15,VALID,0,
2012-10-05, 01:26:04,VALID,1009.13,VALID,0,VALID,104,VALID,0,VALID,23.8889,VALID,15,VALID,0,
2012-10-05, 01:27:04,VALID,1009.11,VALID,0,VALID,104,VALID,0,VALID,23.8871,VALID,15,VALID,0,
2012-10-05, 01:28:04,VALID,1009.12,VALID,0,VALID,104,VALID,0,VALID,23.8889,VALID,15,VALID,0,
2012-10-05, 01:29:04,VALID,1009.13,VALID,0,VALID,104,VALID,0,VALID,23.9084,VALID,15,VALID,0,
2012-10-05, 01:30:04,VALID,1009.14,VALID,0,VALID,104,VALID,0,VALID,23.8481,VALID,15,VALID,0,
2012-10-05, 01:31:04,VALID,1009.17,VALID,0,VALID,104,VALID,0,VALID,23.8694,VALID,14,VALID,0,
2012-10-05, 01:32:04,VALID,1009.19,VALID,0,VALID,104,VALID,0,VALID,23.8481,VALID,15,VALID,0,
2012-10-05, 01:33:04,VALID,1009.2,VALID,0,VALID,104,VALID,0,VALID,23.8499,VALID,15,VALID,0,
2012-10-05, 01:34:04,VALID,1009.21,VALID,0,VALID,104,VALID,0,VALID,23.8091,VALID,15,VALID,0,
2012-10-05, 01:35:04,VALID,1009.19,VALID,0,VALID,104,VALID,0,VALID,23.8109,VALID,15,VALID,0,
2012-10-05, 01:36:04,VALID,1009.18,VALID,0,VALID,104,VALID,0,VALID,23.8091,VALID,15,VALID,0,
2012-10-05, 01:37:04,VALID,1009.15,VALID,0,VALID,104,VALID,0,VALID,23.8304,VALID,15,VALID,0,
2012-10-05, 01:38:04,VALID,1009.16,VALID,0,VALID,104,VALID,0,VALID,23.8091,VALID,15,VALID,0,
2012-10-05, 01:39:04,VALID,1009.16,VALID,0,VALID,104,VALID,0,VALID,23.8091,VALID,15,VALID,0,
2012-10-05, 01:40:04,VALID,1009.19,VALID,0,VALID,104,VALID,0,VALID,23.7896,VALID,15,VALID,0,
2012-10-05, 01:41:04,VALID,1009.22,VALID,0,VALID,104,VALID,0,VALID,23.7896,VALID,15,VALID,0,
2012-10-05, 01:42:04,VALID,1009.22,VALID,0,VALID,104,VALID,0,VALID,23.8109,VALID,15,VALID,0,
2012-10-05, 01:43:04,VALID,1009.22,VALID,0,VALID,104,VALID,0,VALID,23.7896,VALID,15,VALID,0,
2012-10-05, 01:44:04,VALID,1009.23,VALID,0,VALID,104,VALID,0,VALID,23.7701,VALID,15,VALID,0,
2012-10-05, 01:45:04,VALID,1009.2,VALID,0,VALID,104,VALID,0,VALID,23.7507,VALID,15,VALID,0,
2012-10-05, 01:46:04,VALID,1009.21,VALID,0,VALID,104,VALID,0,VALID,23.772,VALID,15,VALID,0,
2012-10-05, 01:47:04,VALID,1009.17,VALID,0,VALID,104,VALID,0,VALID,23.7525,VALID,15,VALID,0,
2012-10-05, 01:48:04,VALID,1009.19,VALID,0,VALID,104,VALID,0,VALID,23.7525,VALID,15,VALID,0,
2012-10-05, 01:49:04,VALID,1009.19,VALID,0,VALID,104,VALID,0,VALID,23.733,VALID,15,VALID,0,
2012-10-05, 01:50:04,VALID,1009.21,VALID,0,VALID,104,VALID,0,VALID,23.7525,VALID,15,VALID,0,
2012-10-05, 01:51:04,VALID,1009.2,VALID,0,VALID,104,VALID,0,VALID,23.733,VALID,15,VALID,0,
2012-10-05, 01:52:04,VALID,1009.22,VALID,0,VALID,104,VALID,0,VALID,23.7135,VALID,15,VALID,0,
2012-10-05, 01:53:04,VALID,1009.2,VALID,0,VALID,104,VALID,0,VALID,23.6922,VALID,15,VALID,0,
2012-10-05, 01:54:04,VALID,1009.2,VALID,0,VALID,104,VALID,0,VALID,23.7135,VALID,15,VALID,0,
2012-10-05, 01:55:04,VALID,1009.19,VALID,0,VALID,104,VALID,0,VALID,23.733,VALID,15,VALID,0,
2012-10-05, 01:56:04,VALID,1009.19,VALID,0,VALID,104,VALID,0,VALID,23.772,VALID,14,VALID,0,
2012-10-05, 01:57:04,VALID,1009.24,VALID,0,VALID,104,VALID,0,VALID,23.7525,VALID,15,VALID,0,
2012-10-05, 01:58:04,VALID,1009.23,VALID,0,VALID,104,VALID,0,VALID,23.7312,VALID,15,VALID,0,
2012-10-05, 01:59:04,VALID,1009.24,VALID,0,VALID,104,VALID,0,VALID,23.7525,VALID,15,VALID,0,
2012-10-05, 02:00:04,VALID,1009.26,VALID,0,VALID,104,VALID,0,VALID,23.7135,VALID,15,VALID,0,
2012-10-05, 02:01:04,VALID,1009.29,VALID,0,VALID,104,VALID,0,VALID,23.7135,VALID,15,VALID,0,
2012-10-05, 02:02:04,VALID,1009.33,VALID,0,VALID,104,VALID,0,VALID,23.7135,VALID,15,VALID,0,
2012-10-05, 02:03:04,VALID,1009.32,VALID,0,VALID,104,VALID,0,VALID,23.6532,VALID,15,VALID,0,
2012-10-05, 02:04:04,VALID,1009.33,VALID,0,VALID,104,VALID,0,VALID,23.6745,VALID,15,VALID,0,
2012-10-05, 02:05:04,VALID,1009.27,VALID,0,VALID,104,VALID,0,VALID,23.6532,VALID,15,VALID,0,
2012-10-05, 02:06:04,VALID,1009.23,VALID,0,VALID,104,VALID,0,VALID,23.655,VALID,15,VALID,0,
2012-10-05, 02:07:04,VALID,1009.19,VALID,0,VALID,104,VALID,0,VALID,23.6356,VALID,15,VALID,0,
2012-10-05, 02:08:04,VALID,1009.13,VALID,0,VALID,104,VALID,0,VALID,23.5948,VALID,15,VALID,0,
2012-10-05, 02:09:04,VALID,1009.1,VALID,0,VALID,104,VALID,0,VALID,23.5753,VALID,15,VALID,0,
2012-10-05, 02:10:04,VALID,1009.08,VALID,0,VALID,104,VALID,0,VALID,23.5753,VALID,15,VALID,0,
2012-10-05, 02:11:04,VALID,1009.05,VALID,0,VALID,104,VALID,0,VALID,23.6161,VALID,15,VALID,0,
2012-10-05, 02:12:04,VALID,1009.05,VALID,0,VALID,104,VALID,0,VALID,23.6161,VALID,15,VALID,0,
2012-10-05, 02:13:04,VALID,1009.06,VALID,0,VALID,104,VALID,0,VALID,23.6338,VALID,15,VALID,0,
2012-10-05, 02:14:04,VALID,1009.07,VALID,0,VALID,104,VALID,0,VALID,23.6745,VALID,15,VALID,0,
2012-10-05, 02:15:04,VALID,1009.07,VALID,0,VALID,104,VALID,0,VALID,23.6745,VALID,15,VALID,0,
2012-10-05, 02:16:04,VALID,1009.05,VALID,0,VALID,104,VALID,0,VALID,23.655,VALID,15,VALID,0,
2012-10-05, 02:17:04,VALID,1009.04,VALID,0,VALID,104,VALID,0,VALID,23.655,VALID,15,VALID,0,
2012-10-05, 02:18:04,VALID,1009.06,VALID,0,VALID,104,VALID,0,VALID,23.6356,VALID,15,VALID,0,
2012-10-05, 02:19:04,VALID,1009.04,VALID,0,VALID,104,VALID,0,VALID,23.655,VALID,15,VALID,0,
2012-10-05, 02:20:04,VALID,1009.05,VALID,0,VALID,104,VALID,0,VALID,23.6532,VALID,15,VALID,0,
2012-10-05, 02:21:04,VALID,1009.07,VALID,0,VALID,104,VALID,0,VALID,23.6532,VALID,15,VALID,0,
2012-10-05, 02:22:04,VALID,1009.1,VALID,0,VALID,104,VALID,0,VALID,23.655,VALID,15,VALID,0,
2012-10-05, 02:23:04,VALID,1009.11,VALID,0,VALID,104,VALID,0,VALID,23.6338,VALID,15,VALID,0,
2012-10-05, 02:24:04,VALID,1009.12,VALID,0,VALID,104,VALID,0,VALID,23.6356,VALID,15,VALID,0,
2012-10-05, 02:25:04,VALID,1009.13,VALID,0,VALID,104,VALID,0,VALID,23.5948,VALID,15,VALID,0,
2012-10-05, 02:26:04,VALID,1009.15,VALID,0,VALID,104,VALID,0,VALID,23.6356,VALID,15,VALID,0,
2012-10-05, 02:27:04,VALID,1009.13,VALID,0,VALID,104,VALID,0,VALID,23.6356,VALID,15,VALID,0,
2012-10-05, 02:28:04,VALID,1009.13,VALID,0,VALID,104,VALID,0,VALID,23.5966,VALID,15,VALID,0,
2012-10-05, 02:29:04,VALID,1009.12,VALID,0,VALID,104,VALID,0,VALID,23.5771,VALID,15,VALID,0,
2012-10-05, 02:30:04,VALID,1009.13,VALID,0,VALID,104,VALID,0,VALID,23.5558,VALID,14,VALID,0,
2012-10-05, 02:31:04,VALID,1009.14,VALID,0,VALID,104,VALID,0,VALID,23.5576,VALID,15,VALID,0,
2012-10-05, 02:32:04,VALID,1009.1,VALID,0,VALID,104,VALID,0,VALID,23.5381,VALID,15,VALID,0,
2012-10-05, 02:33:04,VALID,1009.14,VALID,0,VALID,104,VALID,0,VALID,23.5169,VALID,15,VALID,0,
2012-10-05, 02:34:04,VALID,1009.12,VALID,0,VALID,104,VALID,0,VALID,23.5363,VALID,15,VALID,0,
2012-10-05, 02:35:04,VALID,1009.09,VALID,0,VALID,104,VALID,0,VALID,23.5576,VALID,15,VALID,0,
2012-10-05, 02:36:04,VALID,1009.09,VALID,0,VALID,104,VALID,0,VALID,23.5363,VALID,15,VALID,0,
2012-10-05, 02:37:04,VALID,1009.09,VALID,0,VALID,104,VALID,0,VALID,23.5381,VALID,15,VALID,0,
2012-10-05, 02:38:04,VALID,1009.08,VALID,0,VALID,104,VALID,0,VALID,23.5381,VALID,15,VALID,0,
2012-10-05, 02:39:04,VALID,1009.08,VALID,0,VALID,104,VALID,0,VALID,23.5576,VALID,15,VALID,0,
2012-10-05, 02:40:04,VALID,1009.1,VALID,0,VALID,104,VALID,0,VALID,23.5576,VALID,15,VALID,0,
2012-10-05, 02:41:04,VALID,1009.12,VALID,0,VALID,104,VALID,0,VALID,23.5771,VALID,15,VALID,0,
2012-10-05, 02:42:04,VALID,1009.18,VALID,0,VALID,104,VALID,0,VALID,23.5363,VALID,15,VALID,0,
2012-10-05, 02:43:04,VALID,1009.18,VALID,0,VALID,104,VALID,0,VALID,23.5363,VALID,15,VALID,0,
2012-10-05, 02:44:04,VALID,1009.18,VALID,0,VALID,104,VALID,0,VALID,23.5363,VALID,15,VALID,0,
2012-10-05, 02:45:04,VALID,1009.17,VALID,0,VALID,104,VALID,0,VALID,23.5558,VALID,15,VALID,0,
2012-10-05, 02:46:04,VALID,1009.16,VALID,0,VALID,104,VALID,0,VALID,23.5558,VALID,15,VALID,0,
2012-10-05, 02:47:04,VALID,1009.16,VALID,0,VALID,104,VALID,0,VALID,23.5753,VALID,15,VALID,0,
2012-10-05, 02:48:04,VALID,1009.15,VALID,0,VALID,104,VALID,0,VALID,23.5771,VALID,15,VALID,0,
2012-10-05, 02:49:04,VALID,1009.19,VALID,0,VALID,104,VALID,0,VALID,23.5966,VALID,15,VALID,0,
2012-10-05, 02:50:04,VALID,1009.18,VALID,0,VALID,104,VALID,0,VALID,23.5966,VALID,15,VALID,0,
2012-10-05, 02:51:04,VALID,1009.19,VALID,0,VALID,104,VALID,0,VALID,23.5753,VALID,15,VALID,0,
2012-10-05, 02:52:04,VALID,1009.24,VALID,0,VALID,104,VALID,0,VALID,23.5558,VALID,15,VALID,0,
2012-10-05, 02:53:04,VALID,1009.25,VALID,0,VALID,104,VALID,0,VALID,23.5576,VALID,15,VALID,0,
2012-10-05, 02:54:04,VALID,1009.27,VALID,0,VALID,104,VALID,0,VALID,23.5363,VALID,15,VALID,0,
2012-10-05, 02:55:04,VALID,1009.3,VALID,0,VALID,104,VALID,0,VALID,23.5363,VALID,15,VALID,0,
2012-10-05, 02:56:04,VALID,1009.28,VALID,0,VALID,104,VALID,0,VALID,23.5576,VALID,15,VALID,0,
2012-10-05, 02:57:04,VALID,1009.28,VALID,0,VALID,104,VALID,0,VALID,23.5381,VALID,15,VALID,0,
2012-10-05, 02:58:04,VALID,1009.25,VALID,0,VALID,104,VALID,0,VALID,23.5381,VALID,15,VALID,0,
2012-10-05, 02:59:04,VALID,1009.28,VALID,0,VALID,104,VALID,0,VALID,23.4797,VALID,15,VALID,0,
2012-10-05, 03:00:04,VALID,1009.29,VALID,0,VALID,104,VALID,0,VALID,23.4797,VALID,14,VALID,0,
2012-10-05, 03:01:04,VALID,1009.31,VALID,0,VALID,104,VALID,0,VALID,23.4797,VALID,15,VALID,0,
2012-10-05, 03:02:04,VALID,1009.29,VALID,0,VALID,104,VALID,0,VALID,23.4797,VALID,15,VALID,0,
2012-10-05, 03:03:04,VALID,1009.32,VALID,0,VALID,104,VALID,0,VALID,23.4602,VALID,15,VALID,0,
2012-10-05, 03:04:04,VALID,1009.31,VALID,0,VALID,104,VALID,0,VALID,23.4797,VALID,15,VALID,0,
2012-10-05, 03:05:04,VALID,1009.29,VALID,0,VALID,104,VALID,0,VALID,23.4992,VALID,15,VALID,0,
2012-10-05, 03:06:04,VALID,1009.32,VALID,0,VALID,104,VALID,0,VALID,23.5381,VALID,15,VALID,0,
2012-10-05, 03:07:04,VALID,1009.33,VALID,0,VALID,104,VALID,0,VALID,23.5966,VALID,15,VALID,0,
2012-10-05, 03:08:04,VALID,1009.31,VALID,0,VALID,104,VALID,0,VALID,23.5966,VALID,15,VALID,0,
2012-10-05, 03:09:04,VALID,1009.34,VALID,0,VALID,104,VALID,0,VALID,23.5771,VALID,15,VALID,0,
2012-10-05, 03:10:04,VALID,1009.37,VALID,0,VALID,104,VALID,0,VALID,23.5363,VALID,15,VALID,0,
2012-10-05, 03:11:04,VALID,1009.38,VALID,0,VALID,104,VALID,0,VALID,23.5576,VALID,15,VALID,0,
2012-10-05, 03:12:04,VALID,1009.37,VALID,0,VALID,104,VALID,0,VALID,23.5363,VALID,15,VALID,0,
2012-10-05, 03:13:04,VALID,1009.34,VALID,0,VALID,104,VALID,0,VALID,23.5381,VALID,15,VALID,0,
2012-10-05, 03:14:04,VALID,1009.33,VALID,0,VALID,104,VALID,0,VALID,23.5186,VALID,15,VALID,0,
2012-10-05, 03:15:04,VALID,1009.33,VALID,0,VALID,104,VALID,0,VALID,23.4992,VALID,15,VALID,0,
2012-10-05, 03:16:04,VALID,1009.29,VALID,0,VALID,104,VALID,0,VALID,23.4602,VALID,15,VALID,0,
2012-10-05, 03:17:04,VALID,1009.31,VALID,0,VALID,104,VALID,0,VALID,23.4407,VALID,15,VALID,0,
2012-10-05, 03:18:04,VALID,1009.31,VALID,0,VALID,104,VALID,0,VALID,23.4407,VALID,15,VALID,0,
2012-10-05, 03:19:04,VALID,1009.37,VALID,0,VALID,104,VALID,0,VALID,23.4212,VALID,15,VALID,0,
2012-10-05, 03:20:04,VALID,1009.39,VALID,0,VALID,104,VALID,0,VALID,23.4017,VALID,15,VALID,0,
2012-10-05, 03:21:04,VALID,1009.42,VALID,0,VALID,104,VALID,0,VALID,23.4017,VALID,15,VALID,0,
2012-10-05, 03:22:04,VALID,1009.42,VALID,0,VALID,104,VALID,0,VALID,23.3823,VALID,15,VALID,0,
2012-10-05, 03:23:04,VALID,1009.38,VALID,0,VALID,104,VALID,0,VALID,23.4017,VALID,15,VALID,0,
2012-10-05, 03:24:04,VALID,1009.39,VALID,0,VALID,104,VALID,0,VALID,23.4212,VALID,15,VALID,0,
2012-10-05, 03:25:04,VALID,1009.36,VALID,0,VALID,104,VALID,0,VALID,23.4602,VALID,15,VALID,0,
2012-10-05, 03:26:04,VALID,1009.35,VALID,0,VALID,104,VALID,0,VALID,23.4992,VALID,15,VALID,0,
2012-10-05, 03:27:04,VALID,1009.38,VALID,0,VALID,104,VALID,0,VALID,23.4992,VALID,15,VALID,0,
2012-10-05, 03:28:04,VALID,1009.38,VALID,0,VALID,104,VALID,0,VALID,23.4407,VALID,15,VALID,0,
2012-10-05, 03:29:04,VALID,1009.4,VALID,0,VALID,104,VALID,0,VALID,23.3823,VALID,15,VALID,0,
2012-10-05, 03:30:04,VALID,1009.42,VALID,0,VALID,104,VALID,0,VALID,23.3628,VALID,15,VALID,0,
2012-10-05, 03:31:04,VALID,1009.46,VALID,0,VALID,104,VALID,0,VALID,23.3238,VALID,15,VALID,0,
2012-10-05, 03:32:04,VALID,1009.48,VALID,0,VALID,104,VALID,0,VALID,23.2848,VALID,15,VALID,0,
2012-10-05, 03:33:04,VALID,1009.47,VALID,0,VALID,104,VALID,0,VALID,23.2654,VALID,14,VALID,0,
2012-10-05, 03:34:04,VALID,1009.52,VALID,0,VALID,104,VALID,0,VALID,23.2848,VALID,15,VALID,0,
2012-10-05, 03:35:04,VALID,1009.52,VALID,0,VALID,104,VALID,0,VALID,23.3238,VALID,15,VALID,0,
2012-10-05, 03:36:04,VALID,1009.51,VALID,0,VALID,104,VALID,0,VALID,23.3433,VALID,15,VALID,0,
2012-10-05, 03:37:04,VALID,1009.51,VALID,0,VALID,104,VALID,0,VALID,23.4017,VALID,15,VALID,0,
2012-10-05, 03:38:04,VALID,1009.51,VALID,0,VALID,104,VALID,0.112112,VALID,23.4212,VALID,15,VALID,0,
2012-10-05, 03:39:04,VALID,1009.5,VALID,0,VALID,104,VALID,0,VALID,23.4017,VALID,15,VALID,0,
2012-10-05, 03:40:04,VALID,1009.5,VALID,0,VALID,104,VALID,0,VALID,23.3628,VALID,15,VALID,0,
2012-10-05, 03:41:04,VALID,1009.49,VALID,0,VALID,104,VALID,0,VALID,23.3628,VALID,15,VALID,0,
2012-10-05, 03:42:04,VALID,1009.49,VALID,0,VALID,104,VALID,0,VALID,23.3433,VALID,14,VALID,0,
2012-10-05, 03:43:04,VALID,1009.49,VALID,0,VALID,104,VALID,0,VALID,23.3043,VALID,15,VALID,0,
2012-10-05, 03:44:04,VALID,1009.51,VALID,0,VALID,104,VALID,0,VALID,23.3043,VALID,15,VALID,0,
2012-10-05, 03:45:04,VALID,1009.53,VALID,0,VALID,104,VALID,0,VALID,23.2848,VALID,15,VALID,0,
2012-10-05, 03:46:04,VALID,1009.52,VALID,0,VALID,104,VALID,0,VALID,23.2654,VALID,15,VALID,0,
2012-10-05, 03:47:04,VALID,1009.54,VALID,0,VALID,104,VALID,0,VALID,23.2654,VALID,15,VALID,0,
2012-10-05, 03:48:04,VALID,1009.54,VALID,0,VALID,104,VALID,0,VALID,23.2636,VALID,15,VALID,0,
2012-10-05, 03:49:04,VALID,1009.55,VALID,0,VALID,104,VALID,0,VALID,23.2848,VALID,15,VALID,0,
2012-10-05, 03:50:04,VALID,1009.55,VALID,0,VALID,104,VALID,0,VALID,23.2848,VALID,15,VALID,0,
2012-10-05, 03:51:04,VALID,1009.52,VALID,0,VALID,104,VALID,0,VALID,23.2831,VALID,15,VALID,0,
2012-10-05, 03:52:04,VALID,1009.54,VALID,0,VALID,104,VALID,0,VALID,23.2848,VALID,14,VALID,0,
2012-10-05, 03:53:04,VALID,1009.49,VALID,0,VALID,104,VALID,0,VALID,23.2459,VALID,15,VALID,0,
2012-10-05, 03:54:04,VALID,1009.45,VALID,0,VALID,104,VALID,0,VALID,23.2459,VALID,15,VALID,0,
2012-10-05, 03:55:04,VALID,1009.46,VALID,0,VALID,104,VALID,0,VALID,23.2459,VALID,15,VALID,0,
2012-10-05, 03:56:04,VALID,1009.47,VALID,0,VALID,104,VALID,0,VALID,23.2636,VALID,15,VALID,0,
2012-10-05, 03:57:04,VALID,1009.46,VALID,0,VALID,104,VALID,0.112112,VALID,23.3238,VALID,15,VALID,0,
2012-10-05, 03:58:04,VALID,1009.47,VALID,0,VALID,104,VALID,0,VALID,23.3415,VALID,15,VALID,0,
2012-10-05, 03:59:04,VALID,1009.5,VALID,0,VALID,104,VALID,0,VALID,23.3823,VALID,15,VALID,0,
2012-10-05, 04:00:04,VALID,1009.54,VALID,0,VALID,104,VALID,0,VALID,23.4212,VALID,15,VALID,0,
2012-10-05, 04:01:04,VALID,1009.55,VALID,0,VALID,104,VALID,0,VALID,23.4194,VALID,15,VALID,0,
2012-10-05, 04:02:04,VALID,1009.54,VALID,0,VALID,104,VALID,0.112112,VALID,23.4,VALID,15,VALID,0,
2012-10-05, 04:03:04,VALID,1009.57,VALID,0,VALID,104,VALID,0,VALID,23.4212,VALID,15,VALID,0,
2012-10-05, 04:04:04,VALID,1009.59,VALID,0,VALID,104,VALID,0,VALID,23.4,VALID,15,VALID,0,
2012-10-05, 04:05:04,VALID,1009.59,VALID,0,VALID,104,VALID,0,VALID,23.4017,VALID,15,VALID,0,
2012-10-05, 04:06:04,VALID,1009.59,VALID,0,VALID,104,VALID,0,VALID,23.3823,VALID,15,VALID,0,
2012-10-05, 04:07:04,VALID,1009.63,VALID,0,VALID,104,VALID,0,VALID,23.3823,VALID,15,VALID,0,
2012-10-05, 04:08:04,VALID,1009.66,VALID,0,VALID,104,VALID,0,VALID,23.4212,VALID,15,VALID,0,
2012-10-05, 04:09:04,VALID,1009.69,VALID,0,VALID,104,VALID,0,VALID,23.4194,VALID,15,VALID,0,
2012-10-05, 04:10:04,VALID,1009.71,VALID,0,VALID,104,VALID,0,VALID,23.4797,VALID,15,VALID,0,
2012-10-05, 04:11:04,VALID,1009.73,VALID,0,VALID,104,VALID,0,VALID,23.4584,VALID,15,VALID,0,
2012-10-05, 04:12:04,VALID,1009.72,VALID,0,VALID,104,VALID,0,VALID,23.4407,VALID,15,VALID,0,